Yatton Keynell, United Kingdom

2:10 PM BST on April 21, 2019 (GMT +0100)
Yatton Keynell

Weather History for 03740 - July, 2000

Change the Weather History Date:

Tuesday, July 25, 2000

  Actual Average Record
Temperature  
Mean Temperature 60 °F -  
Max Temperature 64 °F 68 °F - ()
Min Temperature 55 °F 53 °F - ()
Degree Days  
Heating Degree Days 6    
Growing Degree Days 10 (Base 50)    
Moisture  
Dew Point 51 °F    
Average Humidity 75    
Maximum Humidity 88    
Minimum Humidity 52    
Precipitation  
Precipitation 0.00 in 0.08 in - ()
Sea Level Pressure  
Sea Level Pressure 29.77 in    
Wind  
Wind Speed 4 mph ()    
Max Wind Speed 7 mph    
Max Gust Speed -    
Visibility 6.0 miles    
Events      
T = Trace of Precipitation, MM = Missing Value Source: Averaged Metar Reports

Daily Weather History Graph

Daily Weather History Graph

Search for Another Location

Airport or City:

Astronomy

Jul. 25, 2000 Rise Set
Actual Time 5:21 AM BST 9:06 PM BST
Civil Twilight 4:39 AM BST 9:48 PM BST
Nautical Twilight 3:40 AM BST 10:46 PM BST
Astronomical Twilight 2:05 AM BST 12:17 AM BST
Moon 12:40 AM BST (7/25) 3:00 PM BST (7/25)
Length of Visible Light 17h 08m
Length of Day
15h 44m
Last Quarter, 39% of the Moon is Illuminated
Jul 25
Last Quarter
Jul 31
New
Aug 7
First Quarter
Aug 15
Full
Aug 22
Last Quarter

Hourly Weather History & Observations

Time (BST) Temp. Dew Point Humidity Pressure Visibility Wind Dir Wind Speed Gust Speed Precip Events Conditions
12:50 AM 57.2 °F 51.8 °F 82% 29.80 in 5.6 mi North 5.8 mph - N/A   Haze
1:50 AM 55.4 °F 51.8 °F 88% 29.77 in 5.6 mi North 5.8 mph - N/A   Haze
2:50 AM 55.4 °F 51.8 °F 88% 29.77 in 5.6 mi North 5.8 mph - N/A   Haze
3:50 AM 55.4 °F 51.8 °F 88% 29.77 in 5.0 mi ENE 4.6 mph - N/A   Haze
4:50 AM 55.4 °F 51.8 °F 88% 29.77 in 5.6 mi ESE 4.6 mph - N/A   Haze
5:50 AM 55.4 °F 51.8 °F 88% 29.77 in 6.2 mi East 4.6 mph - N/A   Overcast
6:50 AM 55.4 °F 51.8 °F 88% 29.77 in 6.2 mi East 3.5 mph - N/A   Overcast
7:50 AM 55.4 °F 51.8 °F 88% 29.77 in 6.2 mi ESE 2.3 mph - N/A   Overcast
8:50 AM 55.4 °F 51.8 °F 88% 29.77 in 6.2 mi SE 3.5 mph - N/A   Overcast
9:50 AM 57.2 °F 50.0 °F 77% 29.77 in 6.2 mi SE 4.6 mph - N/A   Overcast
10:50 AM 59.0 °F 51.8 °F 77% 29.77 in 6.2 mi South 3.5 mph - N/A   Overcast
11:50 AM 60.8 °F 51.8 °F 72% 29.77 in 6.2 mi South 5.8 mph - N/A   Overcast
12:50 PM 60.8 °F 50.0 °F 68% 29.77 in 6.2 mi South 6.9 mph - N/A   Overcast
1:50 PM 60.8 °F 50.0 °F 68% 29.77 in 6.2 mi SSE 5.8 mph - N/A   Mostly Cloudy
2:50 PM 62.6 °F 50.0 °F 63% 29.77 in 6.2 mi SSE 3.5 mph - N/A   Mostly Cloudy
3:50 PM 62.6 °F 48.2 °F 59% 29.77 in 6.2 mi South 1.2 mph - N/A   Overcast
4:50 PM 62.6 °F 48.2 °F 59% 29.77 in 6.2 mi SSE 3.5 mph - N/A   Overcast
5:50 PM 62.6 °F 48.2 °F 59% 29.77 in 6.2 mi SSW 3.5 mph - N/A   Mostly Cloudy
6:50 PM 64.4 °F 46.4 °F 52% 29.77 in 6.2 mi WSW 3.5 mph - N/A   Scattered Clouds
7:50 PM 62.6 °F 50.0 °F 63% 29.74 in 6.2 mi WSW 3.5 mph - N/A   Scattered Clouds
8:50 PM 60.8 °F 50.0 °F 68% 29.77 in - SSW 2.3 mph - N/A   Clear
9:50 PM 59.0 °F 51.8 °F 77% 29.77 in - SSW 2.3 mph - N/A   Clear
10:50 PM 59.0 °F 51.8 °F 77% 29.77 in - SSW 3.5 mph - N/A   Clear
11:50 PM 59.0 °F 51.8 °F 77% 29.77 in - SW 4.6 mph - N/A   Clear